Location: Saluda
(35.2377°N, 82.3468°W)
Time: 14:54:42
(UTC+00:00)

Explorer 11/Cluster Stage 4 - Pass Details

Date: 10 October 2022
Orbit: 466 x 1247 km, 28.8° (Epoch: 08 December)

Event Time Altitude Azimuth Distance (km) Brightness Sun altitude
Rises 15:43:15 0° 259° (W) 4,005 10.0 42.6°
Reaches altitude 10° 15:46:03 10° 255° (WSW) 3,113 9.6 42.9°
Maximum altitude 15:53:47 55° 180° (S) 1,464 9.6 43.7°
Drops below altitude 10° 16:01:40 10° 106° (ESE) 3,168 10.3 44.4°
Sets 16:04:32 0° 102° (ESE) 4,081 10.6 44.7°
